Time,TemperatureF,DewpointF,PressureIn,WindDirection,WindDirectionDegrees,WindSpeedMPH,WindSpeedGustMPH,Humidity,HourlyPrecipIn,Conditions,Clouds,dailyrainin,SoftwareType,DateUTC
2013-03-27 00:02:00,44.0,30.0,29.78,WSW,243,3.0,5.0,58,0.00,,,0.04,,2013-03-27 07:02:00,
2013-03-27 00:11:00,44.0,30.0,29.78,WSW,243,3.0,5.0,58,0.00,,,0.04,,2013-03-27 07:11:00,
2013-03-27 00:22:00,43.0,30.0,29.78,SW,235,3.0,5.0,60,0.01,,,0.05,,2013-03-27 07:22:00,
2013-03-27 00:32:00,42.0,30.0,29.81,WSW,248,2.0,3.0,63,0.05,,,0.09,,2013-03-27 07:32:00,
2013-03-27 00:42:00,42.0,30.0,29.81,WSW,248,2.0,3.0,63,0.05,,,0.09,,2013-03-27 07:42:00,
2013-03-27 00:53:00,42.0,31.0,29.81,SSW,202,1.0,2.0,64,0.00,,,0.10,,2013-03-27 07:53:00,
2013-03-27 01:02:00,42.0,31.0,29.78,SSW,202,2.0,2.0,66,0.00,,,0.10,,2013-03-27 08:02:00,
2013-03-27 01:11:00,42.0,31.0,29.78,SSW,202,2.0,2.0,66,0.00,,,0.10,,2013-03-27 08:11:00,
2013-03-27 01:22:00,42.0,31.0,29.78,SSE,158,2.0,2.0,66,0.05,,,0.10,,2013-03-27 08:22:00,
2013-03-27 01:32:00,42.0,32.0,29.81,SSE,157,2.0,3.0,67,0.01,,,0.10,,2013-03-27 08:32:00,
2013-03-27 01:42:00,42.0,32.0,29.81,SSE,157,2.0,3.0,67,0.01,,,0.10,,2013-03-27 08:42:00,
2013-03-27 01:52:00,42.0,32.0,29.78,SSE,158,2.0,3.0,68,0.00,,,0.10,,2013-03-27 08:52:00,
2013-03-27 02:01:00,41.0,32.0,29.78,SSE,158,2.0,3.0,69,0.00,,,0.10,,2013-03-27 09:01:00,
2013-03-27 02:11:00,41.0,32.0,29.78,SSE,158,2.0,3.0,69,0.00,,,0.10,,2013-03-27 09:11:00,
2013-03-27 02:22:00,41.0,32.0,29.78,SE,126,3.0,5.0,69,0.00,,,0.10,,2013-03-27 09:22:00,
2013-03-27 02:32:00,40.0,31.0,29.78,SSE,158,2.0,3.0,69,0.00,,,0.10,,2013-03-27 09:32:00,
2013-03-27 02:42:00,40.0,31.0,29.78,SSE,158,2.0,3.0,69,0.00,,,0.10,,2013-03-27 09:42:00,
2013-03-27 02:52:00,40.0,31.0,29.78,SSE,158,2.0,3.0,70,0.00,,,0.10,,2013-03-27 09:52:00,
2013-03-27 03:02:00,41.0,32.0,29.78,SSE,154,3.0,3.0,71,0.00,,,0.10,,2013-03-27 10:02:00,
2013-03-27 03:12:00,41.0,32.0,29.78,SSE,154,3.0,3.0,71,0.00,,,0.10,,2013-03-27 10:12:00,
2013-03-27 03:22:00,41.0,32.0,29.78,SSE,154,2.0,3.0,70,0.00,,,0.10,,2013-03-27 10:22:00,
2013-03-27 03:32:00,41.0,32.0,29.78,SSE,158,2.0,3.0,70,0.00,,,0.10,,2013-03-27 10:32:00,
2013-03-27 03:42:00,41.0,32.0,29.78,SSE,158,2.0,3.0,70,0.00,,,0.10,,2013-03-27 10:42:00,
2013-03-27 03:52:00,41.0,32.0,29.78,SSE,153,3.0,3.0,70,0.00,,,0.10,,2013-03-27 10:52:00,
2013-03-27 04:02:00,40.0,31.0,29.78,SSE,158,2.0,3.0,70,0.00,,,0.09,,2013-03-27 11:02:00,
2013-03-27 04:11:00,40.0,31.0,29.78,SSE,158,2.0,3.0,70,0.00,,,0.09,,2013-03-27 11:11:00,
2013-03-27 04:22:00,39.0,30.0,29.78,SSE,158,3.0,3.0,69,0.00,,,0.09,,2013-03-27 11:22:00,
2013-03-27 04:32:00,39.0,30.0,29.78,South,181,3.0,3.0,69,0.00,,,0.08,,2013-03-27 11:32:00,
2013-03-27 04:42:00,39.0,30.0,29.78,South,181,3.0,3.0,69,0.00,,,0.08,,2013-03-27 11:42:00,
2013-03-27 04:52:00,39.0,30.0,29.78,North,355,2.0,3.0,69,0.00,,,0.08,,2013-03-27 11:52:00,
2013-03-27 05:02:00,38.0,29.0,29.78,ESE,117,2.0,3.0,69,0.00,,,0.08,,2013-03-27 12:02:00,
2013-03-27 05:11:00,38.0,29.0,29.78,ESE,117,2.0,3.0,69,0.00,,,0.08,,2013-03-27 12:11:00,
2013-03-27 05:22:00,38.0,29.0,29.78,SE,145,2.0,3.0,70,0.00,,,0.07,,2013-03-27 12:22:00,
2013-03-27 05:32:00,37.0,28.0,29.78,SSE,158,3.0,5.0,71,0.00,,,0.07,,2013-03-27 12:32:00,
2013-03-27 05:42:00,37.0,28.0,29.78,SSE,158,3.0,5.0,71,0.00,,,0.07,,2013-03-27 12:42:00,
2013-03-27 05:51:00,37.0,29.0,29.78,SSE,158,2.0,3.0,72,0.00,,,0.07,,2013-03-27 12:51:00,
2013-03-27 06:02:00,37.0,29.0,29.75,SSE,158,3.0,5.0,73,0.00,,,0.07,,2013-03-27 13:02:00,
2013-03-27 06:11:00,37.0,29.0,29.75,SSE,158,3.0,5.0,73,0.00,,,0.07,,2013-03-27 13:11:00,
2013-03-27 06:22:00,37.0,29.0,29.78,SE,145,2.0,5.0,73,0.00,,,0.07,,2013-03-27 13:22:00,
2013-03-27 06:32:00,37.0,29.0,29.78,SSE,158,2.0,3.0,72,0.00,,,0.07,,2013-03-27 13:32:00,
2013-03-27 06:42:00,37.0,29.0,29.78,SSE,158,2.0,3.0,72,0.00,,,0.07,,2013-03-27 13:42:00,
2013-03-27 06:52:00,37.0,29.0,29.78,SSE,158,5.0,6.0,73,0.00,,,0.07,,2013-03-27 13:52:00,
2013-03-27 07:02:00,37.0,29.0,29.78,SE,126,3.0,5.0,74,0.00,,,0.07,,2013-03-27 14:02:00,
2013-03-27 07:11:00,37.0,29.0,29.78,SE,126,3.0,5.0,74,0.00,,,0.07,,2013-03-27 14:11:00,
2013-03-27 07:21:00,37.0,29.0,29.78,SE,141,3.0,5.0,74,0.00,,,0.06,,2013-03-27 14:21:00,
2013-03-27 07:32:00,37.0,30.0,29.75,SSE,158,5.0,7.0,75,0.00,,,0.06,,2013-03-27 14:32:00,
2013-03-27 07:42:00,37.0,30.0,29.75,SSE,158,5.0,7.0,75,0.00,,,0.06,,2013-03-27 14:42:00,
2013-03-27 07:51:00,37.0,30.0,29.78,SSE,158,3.0,6.0,75,0.00,,,0.06,,2013-03-27 14:51:00,
2013-03-27 08:02:00,40.0,33.0,29.78,SSE,158,3.0,5.0,75,0.00,,,0.06,,2013-03-27 15:02:00,
2013-03-27 08:11:00,40.0,33.0,29.78,SSE,158,3.0,5.0,75,0.00,,,0.06,,2013-03-27 15:11:00,
2013-03-27 08:22:00,42.0,34.0,29.78,SSE,147,2.0,3.0,74,0.00,,,0.06,,2013-03-27 15:22:00,
2013-03-27 08:32:00,42.0,33.0,29.78,SE,137,2.0,5.0,71,0.00,,,0.06,,2013-03-27 15:32:00,
2013-03-27 08:42:00,42.0,33.0,29.78,SE,137,2.0,5.0,71,0.00,,,0.06,,2013-03-27 15:42:00,
2013-03-27 08:52:00,42.0,33.0,29.78,SSE,154,1.0,2.0,71,0.00,,,0.06,,2013-03-27 15:52:00,
2013-03-27 09:02:00,44.0,35.0,29.78,SSE,153,2.0,6.0,70,0.00,,,0.06,,2013-03-27 16:02:00,
2013-03-27 09:12:00,44.0,35.0,29.78,SSE,153,2.0,6.0,70,0.00,,,0.06,,2013-03-27 16:12:00,
2013-03-27 09:22:00,45.0,36.0,29.78,SSE,158,3.0,3.0,70,0.00,,,0.06,,2013-03-27 16:22:00,
2013-03-27 09:32:00,46.0,36.0,29.78,SSW,202,1.0,5.0,68,0.00,,,0.06,,2013-03-27 16:32:00,
2013-03-27 09:42:00,46.0,36.0,29.78,SSW,202,1.0,5.0,68,0.00,,,0.06,,2013-03-27 16:42:00,
2013-03-27 09:52:00,47.0,36.0,29.78,NW,305,1.0,3.0,66,0.00,,,0.06,,2013-03-27 16:52:00,
2013-03-27 10:02:00,48.0,37.0,29.78,WNW,293,3.0,5.0,65,0.00,,,0.06,,2013-03-27 17:02:00,
2013-03-27 10:22:00,48.0,36.0,29.78,NW,315,3.0,6.0,64,0.00,,,0.06,,2013-03-27 17:22:00,
2013-03-27 10:32:00,48.0,36.0,29.78,North,349,3.0,6.0,63,0.00,,,0.06,,2013-03-27 17:32:00,
2013-03-27 10:44:00,48.0,36.0,29.78,North,349,3.0,6.0,63,0.00,,,0.06,,2013-03-27 17:44:00,
2013-03-27 10:52:00,49.0,37.0,29.78,NW,310,1.0,5.0,64,0.00,,,0.06,,2013-03-27 17:52:00,
2013-03-27 11:02:00,50.0,38.0,29.78,NW,325,1.0,3.0,62,0.00,,,0.06,,2013-03-27 18:02:00,
2013-03-27 11:12:00,50.0,38.0,29.78,NW,325,1.0,3.0,62,0.00,,,0.06,,2013-03-27 18:12:00,
2013-03-27 11:22:00,51.0,38.0,29.78,NW,304,2.0,5.0,61,0.00,,,0.06,,2013-03-27 18:22:00,
2013-03-27 11:32:00,53.0,39.0,29.78,NNW,328,3.0,6.0,58,0.00,,,0.06,,2013-03-27 18:32:00,
2013-03-27 11:42:00,53.0,39.0,29.78,NNW,328,3.0,6.0,58,0.00,,,0.06,,2013-03-27 18:42:00,
2013-03-27 11:52:00,53.0,38.0,29.78,NNW,336,3.0,6.0,56,0.00,,,0.06,,2013-03-27 18:52:00,
2013-03-27 12:02:00,54.0,38.0,29.78,ENE,68,3.0,5.0,55,0.00,,,0.06,,2013-03-27 19:02:00,
2013-03-27 12:11:00,54.0,38.0,29.78,ENE,68,3.0,5.0,55,0.00,,,0.06,,2013-03-27 19:11:00,
2013-03-27 12:21:00,56.0,39.0,29.78,ENE,66,2.0,5.0,53,0.00,,,0.06,,2013-03-27 19:21:00,
2013-03-27 12:32:00,53.0,36.0,29.78,WNW,292,5.0,8.0,52,0.00,,,0.06,,2013-03-27 19:32:00,
2013-03-27 12:42:00,53.0,36.0,29.78,WNW,292,5.0,8.0,52,0.00,,,0.06,,2013-03-27 19:42:00,
2013-03-27 12:52:00,53.0,36.0,29.78,WNW,300,3.0,6.0,53,0.00,,,0.06,,2013-03-27 19:52:00,
2013-03-27 13:02:00,54.0,37.0,29.78,ENE,59,3.0,6.0,52,0.00,,,0.06,,2013-03-27 20:02:00,
2013-03-27 13:11:00,54.0,37.0,29.78,ENE,59,3.0,6.0,52,0.00,,,0.06,,2013-03-27 20:11:00,
2013-03-27 13:22:00,55.0,37.0,29.78,NE,47,3.0,6.0,51,0.00,,,0.06,,2013-03-27 20:22:00,
2013-03-27 13:32:00,55.0,36.0,29.78,ENE,57,5.0,8.0,49,0.00,,,0.06,,2013-03-27 20:32:00,
2013-03-27 13:42:00,55.0,36.0,29.78,ENE,57,5.0,8.0,49,0.00,,,0.06,,2013-03-27 20:42:00,
2013-03-27 13:52:00,54.0,35.0,29.78,NNW,328,4.0,9.0,49,0.00,,,0.06,,2013-03-27 20:52:00,
2013-03-27 14:02:00,56.0,37.0,29.75,NE,38,2.0,7.0,49,0.00,,,0.06,,2013-03-27 21:02:00,
2013-03-27 14:12:00,56.0,37.0,29.75,NE,38,2.0,7.0,49,0.00,,,0.06,,2013-03-27 21:12:00,
2013-03-27 14:22:00,56.0,37.0,29.75,North,356,3.0,7.0,48,0.00,,,0.06,,2013-03-27 21:22:00,
2013-03-27 14:32:00,58.0,38.0,29.75,ESE,118,2.0,8.0,47,0.00,,,0.06,,2013-03-27 21:32:00,
2013-03-27 14:42:00,58.0,38.0,29.75,ESE,118,2.0,8.0,47,0.00,,,0.06,,2013-03-27 21:42:00,
2013-03-27 14:52:00,58.0,37.0,29.75,NNE,14,2.0,10.0,46,0.00,,,0.06,,2013-03-27 21:52:00,
2013-03-27 15:02:00,57.0,36.0,29.75,East,83,3.0,8.0,45,0.00,,,0.06,,2013-03-27 22:02:00,
2013-03-27 15:12:00,57.0,36.0,29.75,East,83,3.0,8.0,45,0.00,,,0.06,,2013-03-27 22:12:00,
2013-03-27 15:23:00,57.0,36.0,29.75,NNW,342,2.0,5.0,45,0.00,,,0.06,,2013-03-27 22:23:00,
2013-03-27 15:32:00,54.0,36.0,29.75,NW,309,4.0,9.0,51,0.00,,,0.06,,2013-03-27 22:32:00,
2013-03-27 15:42:00,54.0,36.0,29.75,NW,309,4.0,9.0,51,0.00,,,0.06,,2013-03-27 22:42:00,
2013-03-27 15:52:00,50.0,38.0,29.75,NW,321,8.0,12.0,62,0.01,,,0.07,,2013-03-27 22:52:00,
2013-03-27 16:02:00,49.0,41.0,29.78,NW,311,3.0,3.0,73,0.02,,,0.08,,2013-03-27 23:02:00,
2013-03-27 16:11:00,49.0,41.0,29.78,NW,311,3.0,3.0,73,0.02,,,0.08,,2013-03-27 23:11:00,
2013-03-27 16:22:00,50.0,40.0,29.75,ENE,59,3.0,6.0,68,0.02,,,0.08,,2013-03-27 23:22:00,
2013-03-27 16:32:00,51.0,39.0,29.78,NW,322,3.0,6.0,63,0.02,,,0.08,,2013-03-27 23:32:00,
2013-03-27 16:42:00,51.0,39.0,29.78,NW,322,3.0,6.0,63,0.02,,,0.08,,2013-03-27 23:42:00,
2013-03-27 16:51:00,52.0,38.0,29.78,NW,315,3.0,6.0,59,0.01,,,0.08,,2013-03-27 23:51:00,
2013-03-27 17:02:00,53.0,37.0,29.78,WNW,300,2.0,5.0,55,0.00,,,0.08,,2013-03-28 00:02:00,
2013-03-27 17:11:00,53.0,37.0,29.78,WNW,300,2.0,5.0,55,0.00,,,0.08,,2013-03-28 00:11:00,
2013-03-27 17:22:00,53.0,37.0,29.78,WNW,297,6.0,8.0,54,0.00,,,0.08,,2013-03-28 00:22:00,
2013-03-27 17:32:00,52.0,36.0,29.78,NW,310,4.0,7.0,54,0.00,,,0.08,,2013-03-28 00:32:00,
2013-03-27 17:42:00,52.0,36.0,29.78,NW,310,4.0,7.0,54,0.00,,,0.08,,2013-03-28 00:42:00,
2013-03-27 17:52:00,52.0,36.0,29.78,WNW,301,5.0,7.0,55,0.00,,,0.08,,2013-03-28 00:52:00,
2013-03-27 18:01:00,53.0,37.0,29.78,NW,309,5.0,9.0,54,0.00,,,0.08,,2013-03-28 01:01:00,
2013-03-27 18:11:00,53.0,37.0,29.78,NW,309,5.0,9.0,54,0.00,,,0.08,,2013-03-28 01:11:00,
2013-03-27 18:21:00,52.0,35.0,29.78,NNW,338,6.0,8.0,53,0.00,,,0.08,,2013-03-28 01:21:00,
2013-03-27 18:32:00,52.0,35.0,29.78,NNW,328,5.0,6.0,52,0.00,,,0.08,,2013-03-28 01:32:00,
2013-03-27 18:42:00,52.0,35.0,29.78,NNW,328,5.0,6.0,52,0.00,,,0.08,,2013-03-28 01:42:00,
2013-03-27 18:52:00,51.0,34.0,29.78,North,359,3.0,6.0,53,0.00,,,0.08,,2013-03-28 01:52:00,
2013-03-27 19:02:00,49.0,34.0,29.78,NNW,338,0.0,2.0,55,0.00,,,0.08,,2013-03-28 02:02:00,
2013-03-27 19:12:00,49.0,34.0,29.78,NNW,338,0.0,2.0,55,0.00,,,0.08,,2013-03-28 02:12:00,
2013-03-27 19:22:00,48.0,33.0,29.78,NNW,338,1.0,3.0,55,0.00,,,0.08,,2013-03-28 02:22:00,
2013-03-27 19:32:00,47.0,35.0,29.78,NW,315,1.0,2.0,62,0.00,,,0.08,,2013-03-28 02:32:00,
2013-03-27 19:42:00,47.0,35.0,29.78,NW,315,1.0,2.0,62,0.00,,,0.08,,2013-03-28 02:42:00,
2013-03-27 19:51:00,47.0,35.0,29.78,NW,315,1.0,2.0,62,0.00,,,0.08,,2013-03-28 02:51:00,
2013-03-27 20:02:00,48.0,36.0,29.78,NNE,12,5.0,6.0,63,0.00,,,0.08,,2013-03-28 03:02:00,
2013-03-27 20:12:00,48.0,36.0,29.78,NNE,12,5.0,6.0,63,0.00,,,0.08,,2013-03-28 03:12:00,
2013-03-27 20:22:00,48.0,36.0,29.78,North,0,1.0,3.0,64,0.00,,,0.08,,2013-03-28 03:22:00,
2013-03-27 20:33:00,48.0,36.0,29.78,SSE,158,1.0,3.0,64,0.00,,,0.08,,2013-03-28 03:33:00,
2013-03-27 20:42:00,48.0,36.0,29.78,SSE,158,1.0,3.0,64,0.00,,,0.08,,2013-03-28 03:42:00,
2013-03-27 20:52:00,48.0,37.0,29.81,SSE,158,0.0,0.0,65,0.00,,,0.08,,2013-03-28 03:52:00,
2013-03-27 21:02:00,48.0,37.0,29.81,WNW,292,0.0,2.0,65,0.00,,,0.08,,2013-03-28 04:02:00,
2013-03-27 21:12:00,48.0,37.0,29.81,WNW,292,0.0,2.0,65,0.00,,,0.08,,2013-03-28 04:12:00,
2013-03-27 21:22:00,48.0,37.0,29.81,WNW,292,0.0,1.0,66,0.00,,,0.08,,2013-03-28 04:22:00,
2013-03-27 21:32:00,47.0,37.0,29.81,NNE,22,2.0,3.0,67,0.00,,,0.08,,2013-03-28 04:32:00,
2013-03-27 21:42:00,47.0,37.0,29.81,NNE,22,2.0,3.0,67,0.00,,,0.08,,2013-03-28 04:42:00,
2013-03-27 21:52:00,47.0,38.0,29.84,NW,305,2.0,3.0,70,0.00,,,0.08,,2013-03-28 04:52:00,
2013-03-27 22:02:00,46.0,37.0,29.81,WNW,292,2.0,3.0,71,0.00,,,0.08,,2013-03-28 05:02:00,
2013-03-27 22:12:00,46.0,37.0,29.81,WNW,292,2.0,3.0,71,0.00,,,0.08,,2013-03-28 05:12:00,
2013-03-27 22:22:00,46.0,37.0,29.81,WNW,292,0.0,3.0,70,0.00,,,0.08,,2013-03-28 05:22:00,
2013-03-27 22:32:00,44.0,34.0,29.81,SSE,158,2.0,2.0,69,0.00,,,0.08,,2013-03-28 05:32:00,
2013-03-27 22:42:00,44.0,34.0,29.81,SSE,158,2.0,2.0,69,0.00,,,0.08,,2013-03-28 05:42:00,
2013-03-27 22:52:00,44.0,35.0,29.84,SSE,158,0.0,2.0,70,0.00,,,0.08,,2013-03-28 05:52:00,
2013-03-27 23:02:00,44.0,35.0,29.84,SSE,158,0.0,0.0,71,0.00,,,0.08,,2013-03-28 06:02:00,
2013-03-27 23:12:00,44.0,35.0,29.84,SSE,158,0.0,0.0,71,0.00,,,0.08,,2013-03-28 06:12:00,
2013-03-27 23:22:00,44.0,35.0,29.84,SSE,158,1.0,1.0,70,0.00,,,0.08,,2013-03-28 06:22:00,
2013-03-27 23:32:00,42.0,33.0,29.84,SSE,158,2.0,3.0,70,0.00,,,0.08,,2013-03-28 06:32:00,
2013-03-27 23:42:00,42.0,33.0,29.84,SSE,158,2.0,3.0,70,0.00,,,0.08,,2013-03-28 06:42:00,
2013-03-27 23:52:00,43.0,35.0,29.84,ESE,112,2.0,3.0,72,0.00,,,0.08,,2013-03-28 06:52:00,